INTELSAT 33E DEB, 64396

Orbit data source: Space-Track

INTELSAT 33E DEB, 64396 is space debris in GEO originally from a launch on Wed, 24 Aug 2016 UTC launched from the French Guiana (FRGUI). Debris objects in space refer to the collection of defunct objects orbiting the Earth. Examples of debris include non-operational satellites, rocket bodies, and fragments generated from explosions, collisions, or faulty payload assembly.

Not visible in the next 10 days
Identifier
64396, 2016-053AA
Orbit
GEO
Country
Flag of USUS / ITSO
Related business
Manufacturer
Boeing/ES
Mission
Spacecraft
Bus & Motor
Unknown
Mass
Unknown
Launch date (UTC)
2016-08-24 (10 years ago)
Launch vehicle
Unknown
Launch site
French Guiana (FRGUI)
Object type
Payload
Rocket body
Debris
Shape & HBR
Unknown shape, 1.1 m
Radar Cross Section
RCS unknown

Expand to show TLE details & history
Last TLE update: 4 days ago

TLE from 4 days ago
0 INTELSAT 33E DEB
1 64396U 16053AA  26155.19338140 -.00000256  00000-0  00000-0 0  9995
2 64396   1.5454  82.5986 0120160  58.1281 302.1812  0.98614715  5858
Epoch: 2026-06-04T04:38Z
TLE epoch observation values (Epoch: 2026-06-04T04:38:28.152Z)
Latitude
Longitude
119.4781°
Altitude
35,987.914 km
Speed
3.077 km/s
True Right ascension
05h 26m 56s
True Declination
0° 00' 00"
Sunlit
Object was in daylight at epoch
Visualization orbit readout
Latitude
Unknown
Longitude
Unknown
Altitude
Unknown
Speed
Unknown
Apparent Right ascension
Unknown
Apparent Declination
Unknown
Sunlit
N/A
Visualization observer readout
Local Sidereal Time
11:53:33
Azimuth
Unknown
Elevation
Unknown
Doppler factor
Unknown
Orbital elements
Apogee altitude
36,771.007 km
Perigee altitude
35,746.359 km
Semi-major axis
42,636.82 km
Eccentricity
0.01202
Inclination
1.5454°
RAAN
82.5986°
Arg. of periapsis
58.1281°
True anomaly
301.0065°
Mean anomaly
302.1812°
Eccentric anomaly
301.59478°
Mean motion
0.24653 °/min
Orbital period
1,460.28 mins
BSTAR
0
Loading maneuver chart data...
Computing Atmospheric mass density...
Loading historical data...
Loading historical data...
Loading historical data...
Loading historical data...
Loading historical data...
Loading historical data...
Loading historical data...

Documentation

Showing up to 5 results
|